K5BV Weather Reports


time (UTC)temp
C
wind
direction
speed
KPH
gust
KPH
rain 1hr
cm
rain 24hr
cm
rain mn
cm
humidity
%
barometer
mb
20260506222235 27 0 0.0 0.0 0.00 0.00 0.00 90 1008.5
20260506221235 27 0 0.0 0.0 0.00 0.00 0.00 88 1008.4
20260506220234 28 0 0.0 0.0 0.00 0.00 0.00 87 1008.5
20260506215235 28 0 0.0 0.0 0.00 0.00 0.00 85 1008.4
20260506214235 29 0 0.0 0.0 0.00 0.00 0.00 83 1008.4
20260506213234 29 0 0.0 0.0 0.00 0.00 0.00 83 1008.3
20260506212234 29 0 0.0 0.0 0.00 0.00 0.00 83 1008.3
20260506211234 28 0 0.0 0.0 0.00 0.00 0.00 84 1008.4
20260506210234 28 0 0.0 0.0 0.00 0.00 0.00 85 1008.5
20260506205235 28 0 0.0 0.0 0.00 0.00 0.00 85 1008.5
20260506204235 28 0 0.0 0.0 0.00 0.00 0.00 84 1008.8
20260506203234 28 0 0.0 0.0 0.00 0.00 0.00 85 1008.8
20260506202235 28 0 0.0 0.0 0.00 0.00 0.00 86 1009.0
20260506201235 28 0 0.0 0.0 0.00 0.00 0.00 85 1009.1
20260506200234 28 0 0.0 0.0 0.00 0.00 0.00 85 1009.2
20260506195234 28 0 0.0 0.0 0.00 0.00 0.00 86 1009.2
20260506194235 28 0 0.0 0.0 0.00 0.00 0.00 87 1009.3
20260506193234 28 0 0.0 0.0 0.00 0.00 0.00 88 1009.3
20260506192234 27 0 0.0 0.0 0.00 0.00 0.00 90 1009.6
20260506191236 27 0 0.0 0.0 0.00 0.00 0.00 91 1009.7
20260506190234 27 0 0.0 0.0 0.00 0.00 0.00 91 1009.8
20260506185234 27 0 0.0 0.0 0.00 0.00 0.00 91 1009.9
20260506184234 27 0 0.0 0.0 0.00 0.00 0.00 91 1009.9
20260506183235 27 0 0.0 0.0 0.00 0.00 0.00 90 1010.0
20260506182234 27 0 0.0 0.0 0.00 0.00 0.00 89 1010.2
20260506181234 27 0 0.0 0.0 0.00 0.00 0.00 89 1010.1
20260506180236 27 0 0.0 0.0 0.00 0.00 0.00 90 1010.0
20260506175234 27 0 0.0 0.0 0.00 0.00 0.00 92 1010.1
20260506174235 27 0 0.0 0.0 0.00 0.00 0.00 95 1010.2
20260506173234 26 0 0.0 0.0 0.00 0.00 0.00 96 1010.1
20260506172235 26 0 0.0 0.0 0.00 0.00 0.00 96 1010.3
20260506171235 25 0 0.0 0.0 0.00 0.00 0.00 97 1010.3
20260506170246 25 0 0.0 0.0 0.00 0.00 0.00 97 1010.2
20260506165234 25 0 0.0 0.0 0.00 0.00 0.00 97 1010.1
20260506164235 25 0 0.0 0.0 0.00 0.00 0.00 97 1010.1
20260506163234 25 0 0.0 0.0 0.00 0.00 0.00 97 1010.1
20260506162235 25 0 0.0 0.0 0.00 0.00 0.00 97 1009.9
20260506161234 25 0 0.0 0.0 0.00 0.00 0.00 98 1010.0
20260506160234 25 0 0.0 0.0 0.00 0.00 0.00 98 1009.8
20260506155234 25 0 0.0 0.0 0.00 0.00 0.00 98 1009.6
20260506154234 25 0 0.0 0.0 0.00 0.00 0.00 98 1009.4
20260506153234 25 0 0.0 0.0 0.00 0.00 0.00 97 1009.3
20260506152234 25 0 0.0 0.0 0.00 0.00 0.00 97 1009.3
20260506151234 25 0 0.0 0.0 0.00 0.00 0.00 97 1009.2
20260506150236 25 0 0.0 0.0 0.00 0.00 0.00 97 1009.3
20260506145234 25 0 0.0 0.0 0.00 0.00 0.00 97 1009.2
20260506144234 25 0 0.0 0.0 0.00 0.00 0.00 97 1009.2
20260506143234 25 0 0.0 0.0 0.00 0.00 0.00 97 1009.3
20260506142236 25 0 0.0 0.0 0.00 0.00 0.00 97 1009.2
20260506141237 25 0 0.0 0.0 0.00 0.00 0.00 97 1009.4
20260506140243 25 0 0.0 0.0 0.00 0.00 0.00 97 1009.1
20260506135236 25 0 0.0 0.0 0.00 0.00 0.00 97 1009.1
20260506134234 25 0 0.0 0.0 0.00 0.00 0.00 97 1009.0
20260506133234 25 0 0.0 0.0 0.00 0.00 0.00 97 1009.1
20260506131236 25 0 0.0 0.0 0.00 0.00 0.00 97 1009.1
20260506130237 25 0 0.0 0.0 0.00 0.00 0.00 97 1009.0
20260506125235 25 0 0.0 0.0 0.00 0.00 0.00 97 1009.0
20260506124235 25 0 0.0 0.0 0.00 0.00 0.00 97 1008.9
20260506123235 25 0 0.0 0.0 0.00 0.00 0.00 97 1008.8
20260506122235 25 0 0.0 0.0 0.00 0.00 0.00 97 1008.7
20260506121235 25 0 0.0 0.0 0.00 0.00 0.00 97 1008.7
20260506120235 25 0 0.0 0.0 0.00 0.00 0.00 97 1008.7
20260506115236 25 0 0.0 0.0 0.00 0.00 0.00 97 1008.6
20260506114235 25 0 0.0 0.0 0.00 0.00 0.00 97 1008.6
20260506113236 25 0 0.0 0.0 0.00 0.00 0.00 97 1008.5
20260506112235 25 0 0.0 0.0 0.00 0.00 0.00 97 1008.5
20260506111235 25 0 0.0 0.0 0.00 0.00 0.00 97 1008.5
20260506110235 25 0 0.0 0.0 0.00 0.00 0.00 97 1008.5
20260506105235 25 0 0.0 0.0 0.00 0.00 0.00 97 1008.6
20260506104235 25 0 0.0 0.0 0.00 0.00 0.00 97 1008.5
20260506103235 25 0 0.0 0.0 0.00 0.00 0.00 96 1008.6
20260506102235 25 0 0.0 0.0 0.00 0.00 0.00 96 1008.5
20260506101235 25 0 0.0 0.0 0.00 0.00 0.00 96 1008.5
20260506100235 25 0 0.0 0.0 0.00 0.00 0.00 96 1008.4
20260506095235 25 0 0.0 0.0 0.00 0.00 0.00 96 1008.3
20260506094235 25 0 0.0 0.0 0.00 0.00 0.00 96 1008.2
20260506093235 25 0 0.0 0.0 0.00 0.00 0.00 96 1008.1
20260506092235 25 0 0.0 0.0 0.00 0.00 0.00 96 1008.2
20260506091235 25 0 0.0 0.0 0.00 0.00 0.00 96 1008.1
20260506090235 25 0 0.0 0.0 0.00 0.00 0.00 96 1008.0
20260506085235 25 0 0.0 0.0 0.00 0.00 0.00 96 1008.1
20260506084235 25 0 0.0 0.0 0.00 0.00 0.00 96 1008.1
20260506083235 25 0 0.0 0.0 0.00 0.00 0.00 96 1008.1
20260506082235 25 0 0.0 0.0 0.00 0.00 0.00 97 1008.1
20260506081235 25 0 0.0 0.0 0.00 0.00 0.00 97 1008.0
20260506080235 25 0 0.0 0.0 0.00 0.00 0.00 97 1007.9
20260506073235 25 0 0.0 0.0 0.00 0.00 0.00 96 1008.1
20260506072235 25 0 0.0 0.0 0.00 0.00 0.00 96 1008.4
20260506071235 25 0 0.0 0.0 0.00 0.00 0.00 96 1008.6
20260506070236 25 0 0.0 0.0 0.00 0.00 0.00 96 1008.9
20260506062236 25 0 0.0 0.0 0.00 0.00 0.00 96 1009.2
20260506061235 25 0 0.0 0.0 0.00 0.00 0.00 96 1009.3
20260506060235 25 0 0.0 0.0 0.00 0.00 0.00 96 1009.2
20260506051235 25 0 0.0 0.0 0.00 0.00 0.00 97 1009.4
20260506050239 25 0 0.0 0.0 0.00 0.00 0.00 97 1009.3
20260506044235 25 0 0.0 0.0 0.00 0.00 0.00 97 1009.2
20260506043235 25 0 0.0 0.0 0.00 0.00 0.00 97 1009.3
20260506042235 25 0 0.0 0.0 0.00 0.00 0.00 97 1009.1
20260506041235 25 0 0.0 0.0 0.00 0.00 0.00 96 1009.2
20260506040234 25 0 0.0 0.0 0.00 0.00 0.00 96 1009.3
20260506035234 25 0 0.0 0.0 0.00 0.00 0.00 96 1009.1
20260506034235 25 0 0.0 0.0 0.00 0.00 0.00 96 1008.9
20260506033234 25 0 0.0 0.0 0.00 0.00 0.00 96 1008.7
20260506032235 25 0 0.0 0.0 0.00 0.00 0.00 96 1008.7
20260506031236 25 0 0.0 0.0 0.00 0.00 0.00 96 1008.6
20260506030236 25 0 0.0 0.0 0.00 0.00 0.00 96 1008.4
20260506025235 25 0 0.0 0.0 0.00 0.00 0.00 96 1008.4
20260506024235 25 0 0.0 0.0 0.00 0.00 0.00 96 1008.3
20260506023235 25 0 0.0 0.0 0.00 0.00 0.00 96 1008.2
20260506022234 25 0 0.0 0.0 0.00 0.00 0.00 96 1008.1
20260506021235 25 0 0.0 0.0 0.00 0.00 0.00 96 1007.9
20260506020235 25 0 0.0 0.0 0.00 0.00 0.00 96 1007.9
20260506015235 25 0 0.0 0.0 0.00 0.00 0.00 96 1007.7
20260506014235 25 0 0.0 0.0 0.00 0.00 0.00 96 1007.6
20260506013235 25 0 0.0 0.0 0.00 0.00 0.00 96 1007.4
20260506012235 25 0 0.0 0.0 0.00 0.00 0.00 96 1007.2
20260506011235 25 0 0.0 0.0 0.00 0.00 0.00 96 1007.2
20260506010235 25 0 0.0 0.0 0.00 0.00 0.00 96 1007.1
20260506005237 25 0 0.0 0.0 0.00 0.00 0.00 96 1006.8
20260506004446 25 0 0.0 0.0 0.00 0.00 0.00 95 1006.9
20260506003235 25 0 0.0 0.0 0.00 0.00 0.00 95 1006.9
20260506002235 25 0 0.0 0.0 0.00 0.00 0.00 95 1006.9
20260506001236 25 0 0.0 0.0 0.00 0.00 0.00 95 1006.8
20260505235236 25 0 0.0 0.0 0.00 0.00 0.00 95 1006.9
20260505234236 25 0 0.0 0.0 0.00 0.00 0.00 95 1006.8
20260505233236 25 0 0.0 0.0 0.00 0.00 0.00 94 1006.7
20260505232235 25 0 0.0 0.0 0.00 0.00 0.00 93 1006.6
20260505231236 25 0 0.0 0.0 0.00 0.00 0.00 92 1006.6
20260505230236 26 0 0.0 0.0 0.00 0.00 0.00 92 1006.6
20260505225236 26 0 0.0 0.0 0.00 0.00 0.00 92 1006.6
20260505224235 26 0 0.0 0.0 0.00 0.00 0.00 92 1006.7
20260505223236 26 0 0.0 0.0 0.00 0.00 0.00 92 1006.8